| time (UTC) | temp C | wind direction | speed KPH | gust KPH | rain 1hr cm | rain 24hr cm | rain mn cm | humidity % | barometer mb |
| 20260503050451 | 1 | 343 | 0.0 | 0.0 | 0.00 | 0.00 | 0.00 | 89 | 1015.9 |
| 20260503045949 | 1 | 344 | 0.0 | 0.0 | 0.00 | 0.00 | 0.00 | 89 | 1015.9 |
| 20260503045446 | 1 | 343 | 0.0 | 0.0 | 0.00 | 0.00 | 0.00 | 89 | 1015.7 |
| 20260503044943 | 1 | 344 | 0.0 | 0.0 | 0.00 | 0.00 | 0.00 | 90 | 1015.7 |
| 20260503044439 | 1 | 343 | 0.0 | 0.0 | 0.00 | 0.00 | 0.00 | 89 | 1015.9 |
| 20260503043937 | 1 | 344 | 0.0 | 0.0 | 0.00 | 0.00 | 0.00 | 89 | 1015.9 |
| 20260503043433 | 1 | 344 | 0.0 | 0.0 | 0.00 | 0.00 | 0.00 | 89 | 1015.6 |
| 20260503042930 | 1 | 344 | 0.0 | 0.0 | 0.00 | 0.00 | 0.00 | 89 | 1015.6 |
| 20260503042427 | 1 | 340 | 0.0 | 0.0 | 0.00 | 0.00 | 0.00 | 89 | 1015.7 |
| 20260503041923 | 2 | 344 | 0.0 | 0.0 | 0.00 | 0.00 | 0.00 | 88 | 1015.7 |
| 20260503041420 | 2 | 344 | 0.0 | 0.0 | 0.00 | 0.00 | 0.00 | 87 | 1015.7 |
| 20260503040917 | 2 | 344 | 0.0 | 0.0 | 0.00 | 0.00 | 0.00 | 86 | 1015.7 |
| 20260503040415 | 2 | 344 | 0.0 | 0.0 | 0.00 | 0.00 | 0.00 | 86 | 1015.6 |
| 20260503035912 | 2 | 344 | 0.0 | 0.0 | 0.00 | 0.00 | 0.00 | 86 | 1015.7 |
| 20260503035409 | 2 | 344 | 0.0 | 0.0 | 0.00 | 0.00 | 0.00 | 85 | 1015.9 |
| 20260503034906 | 2 | 344 | 0.0 | 0.0 | 0.00 | 0.00 | 0.00 | 83 | 1015.8 |
| 20260503034403 | 2 | 344 | 0.0 | 0.0 | 0.00 | 0.00 | 0.00 | 85 | 1015.8 |
| 20260503033900 | 2 | 344 | 0.0 | 0.0 | 0.00 | 0.00 | 0.00 | 86 | 1016.0 |
| 20260503033358 | 3 | 344 | 0.0 | 0.0 | 0.00 | 0.00 | 0.00 | 86 | 1015.9 |
| 20260503032855 | 3 | 344 | 0.0 | 0.0 | 0.00 | 0.00 | 0.00 | 86 | 1016.1 |
| 20260503032355 | 3 | 344 | 0.0 | 0.0 | 0.00 | 0.00 | 0.00 | 86 | 1016.0 |
| 20260503031851 | 3 | 344 | 0.0 | 0.0 | 0.00 | 0.00 | 0.00 | 85 | 1015.9 |
| 20260503031349 | 3 | 344 | 0.0 | 0.0 | 0.00 | 0.00 | 0.00 | 86 | 1016.0 |
| 20260503030845 | 3 | 344 | 0.0 | 0.0 | 0.00 | 0.00 | 0.00 | 86 | 1016.0 |
| 20260503030342 | 3 | 343 | 0.0 | 0.0 | 0.00 | 0.00 | 0.00 | 82 | 1016.0 |
| 20260503025838 | 3 | 343 | 0.0 | 0.0 | 0.00 | 0.00 | 0.00 | 82 | 1016.0 |
| 20260503025336 | 3 | 343 | 0.0 | 0.0 | 0.00 | 0.00 | 0.00 | 80 | 1016.2 |
| 20260503024833 | 3 | 344 | 0.0 | 0.0 | 0.00 | 0.00 | 0.00 | 79 | 1016.0 |
| 20260503024329 | 3 | 344 | 0.0 | 0.0 | 0.00 | 0.00 | 0.00 | 78 | 1016.1 |
| 20260503023826 | 3 | 344 | 0.0 | 0.0 | 0.00 | 0.00 | 0.00 | 80 | 1016.2 |
| 20260503023324 | 3 | 344 | 0.0 | 0.0 | 0.00 | 0.00 | 0.00 | 80 | 1016.1 |
| 20260503022820 | 3 | 344 | 0.0 | 0.0 | 0.00 | 0.00 | 0.00 | 81 | 1016.1 |
| 20260503022320 | 3 | 344 | 0.0 | 0.0 | 0.00 | 0.00 | 0.00 | 81 | 1016.2 |
| 20260503021817 | 3 | 344 | 0.0 | 0.0 | 0.00 | 0.00 | 0.00 | 80 | 1016.3 |
| 20260503021313 | 2 | 343 | 0.0 | 0.0 | 0.00 | 0.00 | 0.00 | 79 | 1016.2 |
| 20260503020811 | 2 | 344 | 0.0 | 0.0 | 0.00 | 0.00 | 0.00 | 80 | 1016.1 |
| 20260503020309 | 2 | 344 | 0.0 | 0.0 | 0.00 | 0.00 | 0.00 | 84 | 1016.0 |
| 20260503015804 | 2 | 344 | 0.0 | 0.0 | 0.00 | 0.00 | 0.00 | 84 | 1016.3 |
| 20260503015305 | 2 | 344 | 0.0 | 0.0 | 0.00 | 0.00 | 0.00 | 82 | 1016.1 |
| 20260503014757 | 3 | 344 | 0.0 | 0.0 | 0.00 | 0.00 | 0.00 | 79 | 1016.1 |
| 20260503014255 | 3 | 344 | 0.0 | 0.0 | 0.00 | 0.00 | 0.00 | 80 | 1016.0 |
| 20260503013752 | 3 | 344 | 0.0 | 0.0 | 0.00 | 0.00 | 0.00 | 80 | 1015.9 |
| 20260503013250 | 3 | 344 | 0.0 | 0.0 | 0.00 | 0.00 | 0.00 | 79 | 1015.8 |
| 20260503012747 | 3 | 344 | 0.0 | 0.0 | 0.00 | 0.00 | 0.00 | 77 | 1015.9 |
| 20260503012244 | 4 | 344 | 0.0 | 0.0 | 0.00 | 0.00 | 0.00 | 78 | 1015.9 |
| 20260503011741 | 5 | 344 | 0.0 | 0.0 | 0.00 | 0.00 | 0.00 | 74 | 1015.8 |
| 20260503011238 | 5 | 344 | 0.0 | 0.0 | 0.00 | 0.00 | 0.00 | 73 | 1015.8 |
| 20260503010734 | 5 | 344 | 0.0 | 0.0 | 0.00 | 0.00 | 0.00 | 72 | 1015.7 |
| 20260503010231 | 5 | 344 | 0.0 | 0.0 | 0.00 | 0.00 | 0.00 | 71 | 1015.8 |
| 20260503005728 | 5 | 344 | 0.0 | 0.0 | 0.00 | 0.00 | 0.00 | 70 | 1015.8 |
| 20260503005226 | 5 | 344 | 0.0 | 0.0 | 0.00 | 0.00 | 0.00 | 70 | 1015.8 |
| 20260503004721 | 5 | 344 | 0.0 | 0.0 | 0.00 | 0.00 | 0.00 | 69 | 1015.7 |
| 20260503004220 | 5 | 344 | 0.0 | 0.0 | 0.00 | 0.00 | 0.00 | 68 | 1015.6 |
| 20260503003717 | 6 | 344 | 0.0 | 0.0 | 0.00 | 0.00 | 0.00 | 67 | 1015.6 |
| 20260503003214 | 6 | 344 | 0.0 | 1.6 | 0.00 | 0.00 | 0.00 | 66 | 1015.9 |
| 20260503002710 | 6 | 355 | 0.0 | 1.6 | 0.00 | 0.00 | 0.00 | 65 | 1015.6 |
| 20260503002207 | 6 | 337 | 1.6 | 1.6 | 0.00 | 0.00 | 0.00 | 65 | 1015.7 |
| 20260503001703 | 6 | 344 | 0.0 | 1.6 | 0.00 | 0.00 | 0.00 | 63 | 1015.5 |
| 20260503001200 | 6 | 343 | 0.0 | 0.0 | 0.00 | 0.00 | 0.00 | 64 | 1015.6 |
| 20260503000658 | 6 | 337 | 1.6 | 1.6 | 0.00 | 0.00 | 0.00 | 62 | 1015.4 |
| 20260503000155 | 6 | 344 | 0.0 | 1.6 | 0.00 | 0.00 | 0.00 | 63 | 1015.5 |
| 20260502235652 | 6 | 349 | 1.6 | 1.6 | 0.00 | 0.00 | 0.00 | 64 | 1015.5 |
| 20260502235150 | 6 | 334 | 0.0 | 1.6 | 0.00 | 0.00 | 0.00 | 62 | 1015.6 |
| 20260502234645 | 6 | 337 | 1.6 | 3.2 | 0.00 | 0.00 | 0.00 | 61 | 1015.4 |
| 20260502234143 | 6 | 355 | 1.6 | 3.2 | 0.00 | 0.00 | 0.00 | 61 | 1015.5 |
| 20260502233639 | 6 | 348 | 0.0 | 0.0 | 0.00 | 0.00 | 0.00 | 63 | 1015.3 |
| 20260502233136 | 6 | 17 | 1.6 | 1.6 | 0.00 | 0.00 | 0.00 | 63 | 1015.5 |
| 20260502232631 | 7 | 338 | 0.0 | 3.2 | 0.00 | 0.00 | 0.00 | 61 | 1015.5 |
| 20260502232129 | 7 | 356 | 1.6 | 3.2 | 0.00 | 0.00 | 0.00 | 61 | 1015.3 |
| 20260502231626 | 7 | 281 | 1.6 | 3.2 | 0.00 | 0.00 | 0.00 | 63 | 1015.4 |
| 20260502231124 | 7 | 267 | 1.6 | 4.8 | 0.00 | 0.00 | 0.00 | 60 | 1015.6 |
| 20260502230622 | 7 | 0 | 0.0 | 0.0 | 0.00 | 0.00 | 0.00 | 62 | 1015.5 |
| 20260502230120 | 7 | 342 | 0.0 | 3.2 | 0.00 | 0.00 | 0.00 | 61 | 1015.5 |
| 20260502225615 | 7 | 329 | 1.6 | 4.8 | 0.00 | 0.00 | 0.00 | 58 | 1015.6 |
| 20260502225113 | 7 | 319 | 1.6 | 4.8 | 0.00 | 0.00 | 0.00 | 57 | 1015.6 |
| 20260502224609 | 7 | 351 | 0.0 | 3.2 | 0.00 | 0.00 | 0.00 | 57 | 1015.4 |
| 20260502224106 | 7 | 329 | 0.0 | 3.2 | 0.00 | 0.00 | 0.00 | 59 | 1015.2 |
| 20260502223603 | 7 | 337 | 4.8 | 8.0 | 0.00 | 0.00 | 0.00 | 59 | 1015.5 |
| 20260502223102 | 7 | 314 | 3.2 | 4.8 | 0.00 | 0.00 | 0.00 | 57 | 1015.4 |
| 20260502222559 | 7 | 357 | 1.6 | 3.2 | 0.00 | 0.00 | 0.00 | 58 | 1015.5 |
| 20260502222055 | 7 | 348 | 0.0 | 1.6 | 0.00 | 0.00 | 0.00 | 62 | 1015.4 |
| 20260502221550 | 7 | 337 | 1.6 | 3.2 | 0.00 | 0.00 | 0.00 | 57 | 1015.3 |
| 20260502221048 | 7 | 334 | 0.0 | 4.8 | 0.00 | 0.00 | 0.00 | 58 | 1015.3 |
| 20260502220543 | 7 | 341 | 0.0 | 1.6 | 0.00 | 0.00 | 0.00 | 59 | 1015.5 |
| 20260502220041 | 7 | 336 | 1.6 | 4.8 | 0.00 | 0.00 | 0.00 | 58 | 1015.2 |
| 20260502215538 | 7 | 326 | 1.6 | 3.2 | 0.00 | 0.00 | 0.00 | 58 | 1015.4 |
| 20260502215034 | 7 | 325 | 3.2 | 4.8 | 0.00 | 0.00 | 0.00 | 56 | 1015.2 |
| 20260502214531 | 7 | 322 | 3.2 | 8.0 | 0.00 | 0.00 | 0.00 | 57 | 1015.4 |
| 20260502214029 | 7 | 274 | 3.2 | 9.7 | 0.00 | 0.00 | 0.00 | 56 | 1015.4 |
| 20260502213525 | 7 | 338 | 3.2 | 3.2 | 0.00 | 0.00 | 0.00 | 58 | 1015.4 |
| 20260502213024 | 7 | 265 | 6.4 | 8.0 | 0.00 | 0.00 | 0.00 | 54 | 1015.3 |
| 20260502212522 | 7 | 338 | 4.8 | 8.0 | 0.00 | 0.00 | 0.00 | 58 | 1015.1 |
| 20260502212020 | 7 | 239 | 1.6 | 4.8 | 0.00 | 0.00 | 0.00 | 59 | 1015.2 |
| 20260502211515 | 7 | 351 | 1.6 | 8.0 | 0.00 | 0.00 | 0.00 | 56 | 1015.2 |
| 20260502211012 | 7 | 337 | 6.4 | 8.0 | 0.00 | 0.00 | 0.00 | 54 | 1015.2 |
| 20260502210509 | 7 | 39 | 1.6 | 3.2 | 0.00 | 0.00 | 0.00 | 55 | 1015.2 |
| 20260502210006 | 7 | 342 | 1.6 | 4.8 | 0.00 | 0.00 | 0.00 | 56 | 1015.3 |
| 20260502205503 | 8 | 338 | 3.2 | 4.8 | 0.00 | 0.00 | 0.00 | 56 | 1015.1 |
| 20260502205000 | 8 | 297 | 1.6 | 4.8 | 0.00 | 0.00 | 0.00 | 55 | 1015.2 |
| 20260502204456 | 8 | 17 | 0.0 | 3.2 | 0.00 | 0.00 | 0.00 | 58 | 1015.3 |
| 20260502203955 | 8 | 341 | 3.2 | 3.2 | 0.00 | 0.00 | 0.00 | 55 | 1015.2 |
| 20260502203451 | 8 | 303 | 1.6 | 3.2 | 0.00 | 0.00 | 0.00 | 56 | 1015.2 |
| 20260502202948 | 8 | 316 | 3.2 | 4.8 | 0.00 | 0.00 | 0.00 | 53 | 1015.4 |
| 20260502202444 | 8 | 321 | 1.6 | 3.2 | 0.00 | 0.00 | 0.00 | 60 | 1015.2 |
| 20260502201943 | 7 | 284 | 1.6 | 3.2 | 0.00 | 0.00 | 0.00 | 54 | 1015.4 |
| 20260502201438 | 7 | 338 | 0.0 | 8.0 | 0.00 | 0.00 | 0.00 | 54 | 1015.2 |
| 20260502200935 | 7 | 347 | 1.6 | 11.3 | 0.00 | 0.00 | 0.00 | 56 | 1015.3 |
| 20260502200431 | 7 | 315 | 4.8 | 9.7 | 0.00 | 0.00 | 0.00 | 56 | 1015.3 |
| 20260502195929 | 7 | 333 | 1.6 | 1.6 | 0.00 | 0.00 | 0.00 | 59 | 1015.3 |
| 20260502195426 | 7 | 27 | 3.2 | 8.0 | 0.00 | 0.00 | 0.00 | 58 | 1015.6 |
| 20260502194922 | 7 | 313 | 3.2 | 4.8 | 0.00 | 0.00 | 0.00 | 58 | 1015.4 |
| 20260502194419 | 7 | 1 | 4.8 | 4.8 | 0.00 | 0.00 | 0.00 | 56 | 1015.5 |
| 20260502193915 | 7 | 350 | 3.2 | 3.2 | 0.00 | 0.00 | 0.00 | 55 | 1015.4 |
| 20260502193412 | 8 | 304 | 4.8 | 4.8 | 0.00 | 0.00 | 0.00 | 53 | 1015.6 |
| 20260502192908 | 8 | 347 | 3.2 | 8.0 | 0.00 | 0.00 | 0.00 | 52 | 1015.7 |
| 20260502192405 | 8 | 352 | 6.4 | 9.7 | 0.00 | 0.00 | 0.00 | 56 | 1015.6 |
| 20260502191902 | 8 | 334 | 1.6 | 9.7 | 0.00 | 0.00 | 0.00 | 55 | 1015.5 |
| 20260502191400 | 8 | 327 | 3.2 | 12.9 | 0.00 | 0.00 | 0.00 | 59 | 1015.6 |
| 20260502190857 | 8 | 346 | 1.6 | 8.0 | 0.00 | 0.00 | 0.00 | 56 | 1015.6 |
| 20260502190354 | 8 | 29 | 3.2 | 11.3 | 0.00 | 0.00 | 0.00 | 55 | 1015.7 |
| 20260502185850 | 8 | 334 | 0.0 | 9.7 | 0.00 | 0.00 | 0.00 | 59 | 1016.0 |
| 20260502185345 | 7 | 270 | 3.2 | 9.7 | 0.00 | 0.00 | 0.00 | 57 | 1015.8 |
| 20260502184843 | 7 | 329 | 4.8 | 11.3 | 0.00 | 0.00 | 0.00 | 58 | 1015.7 |
| 20260502184338 | 8 | 318 | 3.2 | 4.8 | 0.00 | 0.00 | 0.00 | 57 | 1015.8 |
| 20260502183835 | 8 | 293 | 3.2 | 4.8 | 0.00 | 0.00 | 0.00 | 58 | 1015.8 |
| 20260502183331 | 8 | 18 | 4.8 | 8.0 | 0.00 | 0.00 | 0.00 | 58 | 1015.8 |
| 20260502182826 | 8 | 358 | 1.6 | 8.0 | 0.00 | 0.00 | 0.00 | 56 | 1015.8 |
| 20260502182322 | 8 | 348 | 0.0 | 4.8 | 0.00 | 0.00 | 0.00 | 57 | 1016.0 |
| 20260502181819 | 8 | 344 | 3.2 | 8.0 | 0.00 | 0.00 | 0.00 | 59 | 1015.8 |
| 20260502181318 | 7 | 316 | 1.6 | 9.7 | 0.00 | 0.00 | 0.00 | 56 | 1015.9 |
| 20260502180815 | 8 | 321 | 1.6 | 8.0 | 0.00 | 0.00 | 0.00 | 56 | 1016.0 |
| 20260502180312 | 8 | 291 | 4.8 | 8.0 | 0.00 | 0.00 | 0.00 | 57 | 1015.7 |
| 20260502170231 | 7 | 317 | 1.6 | 8.0 | 0.00 | 0.00 | 0.00 | 55 | 1016.4 |
| 20260502164219 | 7 | 306 | 1.6 | 3.2 | 0.00 | 0.00 | 0.00 | 66 | 1016.0 |
| 20260502163714 | 7 | 306 | 1.6 | 4.8 | 0.00 | 0.00 | 0.00 | 65 | 1016.3 |
| 20260502163211 | 7 | 304 | 3.2 | 8.0 | 0.00 | 0.00 | 0.00 | 61 | 1016.3 |
| 20260502162708 | 7 | 345 | 4.8 | 9.7 | 0.00 | 0.00 | 0.00 | 62 | 1016.3 |
| 20260502162204 | 7 | 351 | 4.8 | 8.0 | 0.00 | 0.00 | 0.00 | 62 | 1016.5 |
| 20260502161702 | 6 | 349 | 4.8 | 9.7 | 0.00 | 0.00 | 0.00 | 65 | 1016.5 |
| 20260502161158 | 6 | 314 | 3.2 | 11.3 | 0.00 | 0.00 | 0.00 | 65 | 1016.5 |
| 20260502160656 | 6 | 354 | 1.6 | 8.0 | 0.00 | 0.00 | 0.00 | 66 | 1016.4 |
| 20260502160155 | 6 | 323 | 4.8 | 8.0 | 0.00 | 0.00 | 0.00 | 63 | 1016.4 |
| 20260502152109 | 7 | 67 | 3.2 | 11.3 | 0.00 | 0.00 | 0.00 | 65 | 1016.3 |
| 20260502151606 | 6 | 3 | 1.6 | 4.8 | 0.00 | 0.00 | 0.00 | 67 | 1016.5 |
| 20260502151104 | 7 | 29 | 8.0 | 11.3 | 0.00 | 0.00 | 0.00 | 66 | 1016.2 |
| 20260502150601 | 7 | 344 | 8.0 | 11.3 | 0.00 | 0.00 | 0.00 | 69 | 1016.1 |
| 20260502130446 | 5 | 325 | 8.0 | 9.7 | 0.00 | 0.00 | 0.00 | 79 | 1015.9 |
| 20260502123428 | 3 | 342 | 1.6 | 1.6 | 0.00 | 0.00 | 0.00 | 80 | 1015.7 |
| 20260502122925 | 3 | 334 | 3.2 | 4.8 | 0.00 | 0.00 | 0.00 | 80 | 1015.9 |
| 20260502122421 | 3 | 358 | 3.2 | 4.8 | 0.00 | 0.00 | 0.00 | 81 | 1015.8 |
| 20260502121920 | 2 | 333 | 1.6 | 3.2 | 0.00 | 0.00 | 0.00 | 81 | 1015.7 |
| 20260502121416 | 2 | 332 | 0.0 | 1.6 | 0.00 | 0.00 | 0.00 | 83 | 1015.7 |
| 20260502120914 | 2 | 328 | 1.6 | 3.2 | 0.00 | 0.00 | 0.00 | 82 | 1015.6 |
| 20260502120410 | 2 | 338 | 1.6 | 3.2 | 0.00 | 0.00 | 0.00 | 83 | 1015.6 |
| 20260502115908 | 2 | 341 | 0.0 | 3.2 | 0.00 | 0.00 | 0.00 | 82 | 1015.5 |
| 20260502115405 | 2 | 290 | 1.6 | 4.8 | 0.00 | 0.00 | 0.00 | 82 | 1015.4 |
| 20260502114901 | 2 | 326 | 1.6 | 4.8 | 0.00 | 0.00 | 0.00 | 83 | 1015.5 |
| 20260502114358 | 1 | 337 | 0.0 | 4.8 | 0.00 | 0.00 | 0.00 | 84 | 1015.6 |
| 20260502113855 | 1 | 340 | 0.0 | 1.6 | 0.00 | 0.00 | 0.00 | 84 | 1015.3 |
| 20260502113352 | 1 | 341 | 0.0 | 1.6 | 0.00 | 0.00 | 0.00 | 85 | 1015.5 |
| 20260502112851 | 1 | 341 | 1.6 | 3.2 | 0.00 | 0.00 | 0.00 | 84 | 1015.3 |
| 20260502112348 | 1 | 340 | 0.0 | 1.6 | 0.00 | 0.00 | 0.00 | 85 | 1015.2 |
| 20260502111845 | 1 | 333 | 0.0 | 1.6 | 0.00 | 0.00 | 0.00 | 85 | 1015.4 |
| 20260502111342 | 0 | 329 | 4.8 | 4.8 | 0.00 | 0.00 | 0.00 | 87 | 1015.3 |
| 20260502110840 | 0 | 336 | 0.0 | 1.6 | 0.00 | 0.00 | 0.00 | 88 | 1015.4 |
| 20260502110338 | 0 | 332 | 1.6 | 1.6 | 0.00 | 0.00 | 0.00 | 89 | 1015.4 |
| 20260502105835 | 0 | 332 | 0.0 | 1.6 | 0.00 | 0.00 | 0.00 | 90 | 1015.3 |
| 20260502105332 | 0 | 332 | 0.0 | 1.6 | 0.00 | 0.00 | 0.00 | 91 | 1015.2 |
| 20260502104830 | 0 | 332 | 0.0 | 0.0 | 0.00 | 0.00 | 0.00 | 91 | 1015.3 |
| 20260502104327 | 0 | 332 | 0.0 | 0.0 | 0.00 | 0.00 | 0.00 | 92 | 1015.2 |
| 20260502103824 | 0 | 332 | 0.0 | 0.0 | 0.00 | 0.00 | 0.00 | 92 | 1015.1 |
| 20260502103321 | 0 | 332 | 0.0 | 0.0 | 0.00 | 0.00 | 0.00 | 91 | 1015.1 |
| 20260502102818 | 0 | 332 | 0.0 | 0.0 | 0.00 | 0.00 | 0.00 | 91 | 1015.0 |
| 20260502102314 | 0 | 332 | 0.0 | 0.0 | 0.00 | 0.00 | 0.00 | 91 | 1015.0 |
| 20260502101813 | 0 | 339 | 0.0 | 0.0 | 0.00 | 0.00 | 0.00 | 90 | 1015.3 |
| 20260502101310 | 0 | 344 | 0.0 | 0.0 | 0.00 | 0.00 | 0.00 | 89 | 1014.9 |
| 20260502100809 | 0 | 332 | 0.0 | 0.0 | 0.00 | 0.00 | 0.00 | 88 | 1015.1 |
| 20260502100307 | 0 | 327 | 1.6 | 1.6 | 0.00 | 0.00 | 0.00 | 88 | 1015.2 |
| 20260502091241 | 1 | 331 | 0.0 | 3.2 | 0.00 | 0.00 | 0.00 | 90 | 1015.2 |
| 20260502090738 | 1 | 331 | 0.0 | 3.2 | 0.00 | 0.00 | 0.00 | 90 | 1015.0 |
| 20260502090235 | 0 | 356 | 0.0 | 3.2 | 0.00 | 0.00 | 0.00 | 92 | 1015.0 |
| 20260502071136 | 1 | 335 | 0.0 | 0.0 | 0.00 | 0.00 | 0.00 | 93 | 1015.0 |
| 20260502070634 | 1 | 335 | 0.0 | 0.0 | 0.00 | 0.00 | 0.00 | 93 | 1014.7 |
| 20260502070132 | 1 | 340 | 0.0 | 0.0 | 0.00 | 0.00 | 0.00 | 93 | 1015.0 |
| 20260502065630 | 1 | 340 | 0.0 | 0.0 | 0.00 | 0.00 | 0.00 | 93 | 1015.0 |
| 20260502065127 | 1 | 340 | 0.0 | 0.0 | 0.00 | 0.00 | 0.00 | 93 | 1015.2 |
| 20260502064626 | 1 | 336 | 0.0 | 0.0 | 0.00 | 0.00 | 0.00 | 94 | 1015.2 |
| 20260502064122 | 1 | 329 | 0.0 | 0.0 | 0.00 | 0.00 | 0.00 | 95 | 1015.2 |
| 20260502063620 | 1 | 329 | 0.0 | 0.0 | 0.00 | 0.00 | 0.00 | 95 | 1015.2 |
| 20260502063117 | 1 | 329 | 0.0 | 1.6 | 0.00 | 0.00 | 0.00 | 95 | 1015.2 |
| 20260502062614 | 1 | 338 | 0.0 | 0.0 | 0.00 | 0.00 | 0.00 | 95 | 1015.3 |
| 20260502062112 | 1 | 342 | 0.0 | 0.0 | 0.00 | 0.00 | 0.00 | 95 | 1015.0 |
| 20260502061610 | 1 | 329 | 0.0 | 0.0 | 0.00 | 0.00 | 0.00 | 96 | 1015.0 |
| 20260502061108 | 1 | 335 | 0.0 | 0.0 | 0.00 | 0.00 | 0.00 | 96 | 1015.1 |
| 20260502060607 | 1 | 333 | 0.0 | 0.0 | 0.00 | 0.00 | 0.00 | 97 | 1015.4 |
| 20260502060105 | 1 | 329 | 0.0 | 0.0 | 0.00 | 0.00 | 0.00 | 98 | 1015.2 |
| 20260502055602 | 1 | 336 | 0.0 | 0.0 | 0.00 | 0.00 | 0.00 | 98 | 1015.0 |
| 20260502055100 | 1 | 337 | 0.0 | 0.0 | 0.00 | 0.00 | 0.00 | 98 | 1015.3 |
| 20260502054559 | 1 | 340 | 0.0 | 0.0 | 0.00 | 0.00 | 0.00 | 99 | 1015.4 |
| 20260502054055 | 1 | 341 | 0.0 | 0.0 | 0.00 | 0.00 | 0.00 | 99 | 1015.3 |
| 20260502053552 | 1 | 339 | 0.0 | 0.0 | 0.00 | 0.00 | 0.00 | 99 | 1015.4 |
| 20260502053050 | 1 | 329 | 0.0 | 0.0 | 0.00 | 0.00 | 0.00 | 99 | 1015.5 |
| 20260502052549 | 2 | 338 | 0.0 | 0.0 | 0.00 | 0.00 | 0.00 | 99 | 1015.4 |
| 20260502052046 | 2 | 342 | 0.0 | 0.0 | 0.00 | 0.00 | 0.00 | 99 | 1015.4 |
| 20260502051544 | 2 | 336 | 0.0 | 1.6 | 0.00 | 0.00 | 0.00 | 99 | 1015.4 |
| 20260502051042 | 2 | 340 | 0.0 | 0.0 | 0.00 | 0.00 | 0.00 | 99 | 1015.4 |